Lamar, CO

2:44 AM MDT on September 23, 2017 (GMT -0600)
Lamar Municipal

Weather History for KLAA - August, 2012

Change the Weather History Date:

Sunday, August 5, 2012

  Actual Average Record
Temperature  
Mean Temperature 74 °F 77 °F  
Max Temperature 92 °F 92 °F 108 °F (1934)
Min Temperature 55 °F 62 °F 50 °F (1992)
Degree Days  
Heating Degree Days 0 0  
Month to date heating degree days 0 0  
Since 1 June heating degree days 0 22  
Since 1 July heating degree days 0 2  
Cooling Degree Days 9 12  
Month to date cooling degree days 73 62  
Year to date cooling degree days 1197 726  
Since 1 June cooling degree days 1105 666  
Growing Degree Days 23 (Base 50)    
Moisture  
Dew Point 50 °F    
Average Humidity 53    
Maximum Humidity 86    
Minimum Humidity 19    
Precipitation  
Precipitation 0.00 in 0.11 in 1.10 in (1997)
Month to date precipitation 0.33 0.54  
Year to date precipitation 3.65  
Snow  
Snow 0.00 in - - ()
Month to date snowfall 0.0  
Since 1 June snowfall 0.0  
Snow Depth 0.00 in    
Sea Level Pressure  
Sea Level Pressure 30.10 in    
Wind  
Wind Speed 11 mph (SSE)    
Max Wind Speed 23 mph    
Max Gust Speed 31 mph    
Visibility 10 miles    
Events      
T = Trace of Precipitation, MM = Missing Value Source: NWS Daily Summary

Daily Weather History Graph

Daily Weather History Graph

Search for Another Location

Airport or City:

Trip Planner

Search our weather history database for the weather conditions in past years. The results will help you decide how hot, cold, wet, or windy it might be!

Date:

Astronomy

Aug. 05, 2012 Rise Set
Actual Time 5:57 AM MDT 7:55 PM MDT
Civil Twilight 5:28 AM MDT 8:24 PM MDT
Nautical Twilight 4:53 AM MDT 8:59 PM MDT
Astronomical Twilight 4:15 AM MDT 9:36 PM MDT
Moon 9:40 PM MDT (8/5) 9:43 AM MDT (8/5)
Length of Visible Light 14h 55m
Length of Day
13h 57m
Waning Gibbous, 86% of the Moon is Illuminated
Aug 5
Waning Gibbous
Aug 9
Last Quarter
Aug 17
New
Aug 24
First Quarter
Aug 31
Full

Hourly Weather History & Observations

Time (MDT) Temp. Heat Index Dew Point Humidity Pressure Visibility Wind Dir Wind Speed Gust Speed Precip Events Conditions
12:53 AM 63.0 °F - 48.9 °F 60% 30.14 in 10.0 mi SSW 6.9 mph - N/A   Clear
1:53 AM 63.0 °F - 51.1 °F 65% 30.14 in 10.0 mi Calm Calm - N/A   Clear
2:53 AM 60.1 °F - 52.0 °F 75% 30.16 in 10.0 mi East 3.5 mph - N/A   Clear
3:53 AM 59.0 °F - 51.1 °F 75% 30.17 in 10.0 mi Calm Calm - N/A   Clear
4:53 AM 60.1 °F - 51.1 °F 72% 30.17 in 10.0 mi Calm Calm - N/A   Clear
5:53 AM 55.9 °F - 51.1 °F 84% 30.19 in 10.0 mi Calm Calm - N/A   Clear
6:53 AM 57.9 °F - 53.1 °F 84% 30.19 in 10.0 mi Calm Calm - N/A   Clear
7:53 AM 64.0 °F - 55.0 °F 73% 30.20 in 10.0 mi Calm Calm - N/A   Clear
8:53 AM 73.9 °F - 43.0 °F 33% 30.19 in 10.0 mi SSE 9.2 mph 17.3 mph N/A   Clear
9:53 AM 78.1 °F - 39.9 °F 25% 30.19 in 10.0 mi South 12.7 mph - N/A   Clear
10:53 AM 81.0 °F - 37.9 °F 21% 30.18 in 10.0 mi SSE 10.4 mph - N/A   Clear
11:53 AM 84.0 °F - 37.9 °F 19% 30.14 in 10.0 mi ESE 15.0 mph 19.6 mph N/A   Clear
12:53 PM 87.1 °F - 41.0 °F 20% 30.12 in 10.0 mi SE 9.2 mph 24.2 mph N/A   Clear
1:53 PM 88.0 °F - 44.1 °F 22% 30.09 in 10.0 mi SE 11.5 mph 24.2 mph N/A   Clear
2:53 PM 90.0 °F - 46.9 °F 23% 30.06 in 10.0 mi SSE 10.4 mph 21.9 mph N/A   Clear
3:53 PM 91.9 °F - 50.0 °F 24% 30.03 in 10.0 mi SE 16.1 mph 23.0 mph N/A   Clear
4:53 PM 90.0 °F - 51.1 °F 26% 30.03 in 10.0 mi SSE 18.4 mph 25.3 mph N/A   Clear
5:53 PM 90.0 °F 87.7 °F 54.0 °F 29% 30.01 in 10.0 mi SE 20.7 mph 31.1 mph N/A   Clear
6:53 PM 88.0 °F - 52.0 °F 29% 30.01 in 10.0 mi SSE 20.7 mph 26.5 mph N/A   Clear
7:53 PM 82.9 °F 81.9 °F 54.0 °F 37% 30.02 in 10.0 mi SSE 18.4 mph - N/A   Clear
8:53 PM 80.1 °F 80.1 °F 55.0 °F 42% 30.01 in 10.0 mi SSE 16.1 mph - N/A   Clear
9:53 PM 78.1 °F - 55.9 °F 46% 30.01 in 10.0 mi SSE 16.1 mph 23.0 mph N/A   Clear
10:53 PM 75.9 °F - 57.0 °F 52% 30.00 in 10.0 mi SSE 17.3 mph - N/A   Clear
11:53 PM 77.0 °F - 57.0 °F 50% 29.99 in 10.0 mi South 17.3 mph - N/A   Clear